GFSSE_sfc_30mbdewp_057.txt.gz
Dewpoint
68 70 70 70 69 70 69 69 68 67 67 67 67 67 67 67 66 66 65 63 62 62 61 61 60 59 59 60 61 61 62 62 61 61 62 62 61 62 63 63 62 61 63
68 69 69 69 69 69 68 68 68 67 67 67 68 67 66 66 65 65 63 62 63 62 61 61 61 60 60 61 61 60 60 61 62 61 59 58 60 60 62 62 62 62 61
68 68 67 66 65 66 67 68 67 67 67 68 68 66 66 66 65 64 62 63 63 62 61 61 61 61 62 63 62 61 60 60 60 59 58 57 57 58 59 59 60 59 61
65 65 65 64 63 62 64 67 67 66 67 68 67 66 66 65 64 63 62 63 63 62 60 60 60 61 62 63 62 59 59 59 58 57 56 56 56 57 56 57 56 55 57
62 67 65 63 62 62 63 66 67 66 67 68 67 66 65 65 64 62 61 62 62 62 59 58 57 59 62 61 60 58 58 57 57 55 55 55 56 55 57 56 56 56 53
62 67 66 63 60 65 64 66 66 66 67 67 67 65 65 64 63 62 61 62 62 61 58 55 58 61 61 61 60 58 58 57 55 55 55 56 55 55 54 54 54 52 54
62 63 66 66 65 65 66 65 64 67 67 67 67 65 65 64 63 62 61 61 62 60 57 56 60 62 61 60 59 57 57 55 53 54 54 54 54 54 54 54 53 53 53
63 65 64 66 65 65 65 65 64 66 67 67 67 65 65 64 63 63 62 61 61 60 58 58 61 61 60 58 58 57 56 55 53 53 54 54 54 53 53 53 53 52 52
65 65 65 65 64 63 62 60 60 62 66 65 66 65 65 65 64 63 62 61 59 57 56 56 57 59 59 57 57 56 55 54 52 52 53 53 53 53 53 52 52 51 51
64 63 65 65 65 62 61 60 60 63 65 64 65 66 66 65 64 63 61 59 57 57 56 56 56 59 59 58 56 55 55 53 52 53 54 54 53 52 52 52 51 51 50
63 63 64 63 62 61 60 59 60 63 66 66 66 67 65 64 62 60 59 58 57 57 57 55 53 57 59 57 56 55 53 52 53 54 55 55 53 53 52 52 51 50 50
61 61 61 61 60 59 59 58 60 63 64 66 66 65 64 62 60 60 59 57 55 55 54 54 53 50 51 53 55 53 53 54 54 55 56 55 53 53 52 52 50 49 49
60 60 60 59 58 56 54 55 59 62 62 62 61 62 62 61 60 59 58 57 56 53 51 48 48 47 46 49 49 51 54 54 55 56 57 56 54 53 52 52 52 51 51
58 59 59 58 57 57 55 54 57 60 59 60 60 61 60 59 57 57 56 55 53 51 48 48 50 47 43 45 47 49 50 51 52 54 57 56 56 52 52 53 53 52 51
57 58 59 59 58 56 54 55 60 58 58 58 60 60 58 56 55 56 55 53 51 50 47 47 50 46 45 40 39 43 43 45 46 48 51 54 55 55 53 52 52 53 52
56 57 58 58 58 58 58 60 58 56 57 58 58 57 55 54 55 53 53 51 50 48 48 48 50 46 45 39 36 36 39 39 39 39 42 44 47 51 53 54 53 53 52
56 56 56 56 56 57 58 58 57 56 56 56 55 55 54 53 53 52 53 52 51 50 48 51 50 48 44 40 35 36 37 39 40 37 39 42 45 45 45 49 53 54 53
55 55 56 56 55 56 57 57 55 55 56 55 56 55 55 54 53 53 53 53 53 52 50 51 51 48 45 44 38 35 35 35 39 39 39 41 44 46 49 48 49 50 54
55 55 55 55 53 53 54 53 53 54 54 55 56 56 55 54 53 53 55 55 55 54 53 52 51 50 47 46 42 37 36 35 34 36 40 41 42 46 46 51 55 55 55
54 54 54 54 54 52 52 53 53 52 53 54 53 55 57 57 57 57 57 57 56 56 55 53 51 50 49 46 44 39 37 37 36 34 37 42 42 45 46 48 50 50 52
52 52 53 53 53 53 51 52 51 50 50 51 53 53 55 56 56 57 57 57 57 56 54 53 51 50 48 46 41 39 38 38 38 36 36 39 38 42 45 46 46 45 46
51 51 52 52 52 52 50 49 48 48 49 51 50 51 52 52 55 55 57 57 57 55 54 53 51 49 49 44 41 38 35 38 41 41 38 36 36 38 43 43 43 42 39
52 51 51 51 51 51 51 50 48 47 47 49 50 51 51 52 53 55 56 57 57 56 54 53 52 50 49 44 41 42 39 39 39 40 41 39 37 36 38 39 40 39 37
51 51 51 50 50 51 52 51 48 45 44 46 49 50 50 53 52 55 56 56 56 56 55 54 53 51 50 47 42 44 43 43 40 38 40 40 41 39 36 36 35 35 34
50 51 51 51 50 50 51 52 49 46 45 45 49 50 51 52 54 55 56 56 57 57 56 55 54 52 50 49 45 44 43 43 44 44 40 38 40 41 40 38 37 36 35
50 50 50 51 50 49 49 51 51 47 46 46 47 49 50 52 53 55 56 57 57 57 57 56 56 54 52 51 48 46 45 44 44 43 40 40 38 37 35 38 39 38 38

GFSSE_sfc_30mbdewp_060.txt.gz
Dewpoint
67 69 70 70 69 69 69 68 69 69 69 68 68 68 68 68 67 66 65 64 63 63 61 61 61 60 60 60 60 60 62 62 63 63 63 62 62 61 62 62 62 62 63
68 69 69 69 68 68 68 68 68 68 68 68 68 68 67 67 66 64 64 64 63 62 60 59 59 59 60 61 62 62 61 61 61 61 61 61 61 61 62 62 62 62 62
68 68 69 68 68 68 68 68 68 68 68 68 67 67 67 66 64 64 64 64 64 63 61 60 60 60 60 61 61 61 60 60 60 59 58 57 59 59 59 58 60 61 60
68 67 67 68 68 68 68 68 68 68 68 67 67 66 66 65 64 64 64 64 63 63 61 60 62 61 61 61 61 60 59 59 58 57 56 57 55 56 55 55 56 55 56
65 65 66 66 65 66 67 67 68 68 68 67 66 66 65 64 64 65 64 64 63 63 61 62 62 62 61 61 60 59 58 57 57 56 55 55 56 57 56 54 55 56 56
63 65 64 63 64 64 63 67 67 68 67 66 66 66 65 64 64 64 64 63 62 61 61 61 63 62 61 60 59 58 58 58 56 55 55 56 54 54 54 54 54 53 53
61 65 66 63 65 65 64 65 66 67 67 66 66 65 64 63 64 64 63 62 60 59 59 62 61 61 60 59 58 58 57 56 54 54 54 54 55 54 54 54 53 53 53
61 63 66 63 65 65 65 64 64 64 65 65 65 65 64 63 63 64 63 61 60 61 62 63 62 60 60 58 57 58 57 56 54 54 54 54 54 54 54 53 53 52 52
62 64 66 64 64 65 63 61 62 63 63 65 65 65 64 63 63 63 62 60 60 62 63 62 60 59 59 58 58 57 56 55 53 53 54 54 54 53 53 52 52 51 51
64 64 64 64 61 61 62 61 60 60 64 65 65 65 65 64 63 62 59 58 58 59 61 61 60 59 58 58 57 57 56 54 53 53 54 55 54 53 53 52 51 51 50
62 63 64 62 60 60 59 59 59 60 60 64 65 65 64 63 61 58 57 59 58 58 59 60 60 59 58 57 57 56 54 53 53 54 55 55 53 53 52 52 51 50 50
61 62 63 62 60 60 59 58 56 58 57 59 64 64 63 61 58 58 59 58 56 55 57 60 60 59 57 56 56 54 53 53 54 55 56 55 53 53 52 52 51 50 50
60 60 60 60 60 59 59 58 58 58 58 57 64 63 61 60 60 58 57 56 55 54 50 52 52 51 53 52 52 53 54 54 55 55 56 55 54 53 52 51 51 50 49
59 59 60 60 60 59 57 56 58 55 58 59 61 62 60 59 57 56 55 54 51 49 48 48 47 48 49 50 51 53 53 54 54 55 57 56 55 53 53 53 52 52 50
58 58 59 58 56 56 54 55 58 58 59 60 60 61 58 56 55 55 54 52 50 49 49 48 45 45 46 46 49 50 50 51 52 54 55 56 56 54 52 53 54 53 52
58 58 58 57 56 56 53 57 60 58 59 60 59 60 57 55 55 53 52 50 49 48 49 48 46 44 41 40 42 43 43 44 44 45 49 52 54 56 54 53 53 54 53
57 58 57 58 57 56 54 59 57 57 58 59 60 58 55 55 54 53 52 50 50 48 50 50 47 46 41 37 36 38 39 39 38 38 40 42 44 46 50 54 54 54 54
56 56 57 58 58 58 57 58 56 57 58 58 57 56 54 54 53 53 52 50 51 49 51 51 48 46 43 39 36 36 37 39 39 38 39 41 43 43 45 46 51 55 55
56 56 56 56 57 57 58 56 55 56 56 56 56 55 54 53 53 52 52 52 52 52 50 51 50 48 45 44 40 36 35 35 37 38 39 40 42 44 46 48 49 50 53
55 56 55 55 55 55 55 55 54 54 55 56 56 55 54 54 53 53 54 53 54 54 53 52 51 50 48 46 44 39 37 36 35 35 37 40 41 43 45 47 53 54 56
54 54 54 54 54 53 53 53 53 52 52 54 55 55 55 55 55 56 55 55 56 55 54 53 52 50 49 47 43 41 40 38 37 36 36 39 41 42 44 46 48 49 51
52 53 53 53 53 54 54 53 53 52 51 52 52 54 55 56 57 57 57 56 57 56 55 54 52 51 50 46 44 40 39 39 40 39 39 36 38 39 43 45 45 45 44
51 52 52 52 53 53 53 52 48 48 51 49 50 50 51 52 54 56 56 57 56 56 54 53 52 51 50 47 43 45 40 40 39 41 41 40 37 37 38 42 43 43 42
51 52 52 52 52 51 52 51 49 48 49 48 48 50 51 51 52 53 55 55 56 56 55 54 53 51 50 48 44 44 45 43 40 41 40 41 41 38 37 37 39 39 39
51 51 51 51 51 51 50 49 49 47 46 47 49 48 50 51 52 53 54 55 55 56 55 55 54 52 51 50 46 44 44 44 44 43 42 42 40 42 41 39 38 36 36
51 51 51 50 50 50 51 51 49 48 46 45 45 47 48 50 51 53 54 55 55 55 56 55 55 54 53 51 49 47 46 46 44 44 43 42 40 39 37 40 40 39 39

GFSSE_sfc_30mbdewp_066.txt.gz
Dewpoint
62 65 70 70 71 70 70 69 69 70 69 69 68 68 68 68 69 68 68 67 66 66 64 64 64 63 63 64 64 65 65 65 65 65 64 63 63 63 63 63 63 63 64
63 65 69 70 70 70 70 69 69 70 69 69 68 68 68 69 68 68 67 66 66 65 63 62 61 63 63 63 64 65 65 65 64 64 64 63 63 63 63 64 63 63 63
64 64 66 69 70 70 70 69 70 69 69 68 68 68 68 69 68 67 66 65 65 64 62 60 60 62 63 63 63 63 63 63 62 62 60 58 61 61 61 62 62 61 61
64 64 65 69 70 70 70 70 69 69 68 68 68 68 68 67 67 66 65 64 63 63 61 60 59 61 62 62 62 61 60 59 59 59 51 54 58 59 59 59 59 59 58
63 63 65 68 67 70 70 69 69 69 68 68 68 68 67 66 66 65 64 63 63 62 60 59 61 61 62 62 62 61 60 57 56 50 50 51 54 57 57 56 57 57 57
64 62 66 68 67 68 69 69 69 68 68 68 67 67 67 66 65 65 64 63 62 61 59 60 61 62 62 61 61 60 58 56 52 50 51 53 54 55 56 56 56 55 54
66 64 66 66 64 64 64 68 69 68 68 67 66 66 66 66 65 65 64 64 63 62 60 60 61 61 61 61 60 59 57 55 49 49 50 52 54 55 54 54 54 54 53
66 65 64 64 63 63 64 67 68 67 67 66 66 66 66 66 65 65 64 64 64 63 61 61 61 60 60 59 59 57 56 51 49 49 50 52 55 54 54 54 54 53 53
65 65 63 62 63 64 62 65 67 67 67 66 66 66 66 65 65 65 65 65 65 63 61 61 61 60 59 59 58 57 56 52 48 49 49 52 55 54 54 53 53 53 52
64 64 64 64 63 62 62 64 63 65 66 65 66 65 65 64 64 63 63 65 64 62 61 61 60 60 59 59 58 56 54 52 49 49 50 53 54 54 53 53 52 52 51
63 62 63 62 63 62 59 62 63 63 64 65 65 64 64 62 61 60 60 65 63 61 61 60 60 60 59 58 58 55 54 48 49 49 51 55 54 53 53 52 52 52 51
61 62 63 63 62 63 63 62 62 63 64 64 64 62 62 62 60 55 61 64 63 61 60 60 60 58 54 50 52 53 47 50 49 50 52 55 54 53 53 52 52 51 50
60 62 63 64 64 64 63 62 62 63 63 62 62 61 62 61 55 57 60 61 58 57 54 55 54 50 47 46 46 46 50 49 49 50 54 55 53 53 53 52 52 51 50
59 60 61 62 61 60 61 61 61 60 61 60 58 61 61 57 57 57 56 56 55 53 53 52 50 50 49 47 46 48 49 48 49 50 54 56 55 54 53 52 52 51 50
58 59 59 59 59 59 59 60 59 58 58 59 59 59 59 56 56 54 54 54 53 53 54 52 51 51 49 48 48 47 48 49 50 49 52 56 55 54 53 53 52 51 51
59 59 59 59 59 59 58 59 59 60 59 60 60 58 58 55 55 52 52 51 51 53 53 51 50 48 47 47 48 46 46 48 49 50 50 54 55 55 55 54 54 52 52
59 59 59 59 59 58 58 58 59 60 59 59 58 57 57 54 54 53 50 50 49 49 50 49 49 47 46 46 46 46 45 46 47 48 49 51 53 56 55 55 55 55 54
58 57 58 58 57 58 58 58 58 58 58 58 59 56 54 54 54 53 51 48 49 49 48 48 48 47 46 45 43 43 41 42 43 44 45 47 49 49 54 55 56 56 56
58 58 58 57 56 58 58 59 59 57 57 59 59 55 52 54 54 52 51 50 53 50 48 47 47 47 45 44 42 40 40 39 41 39 39 42 43 42 44 52 54 56 57
57 58 57 57 56 57 58 58 59 58 57 58 59 55 52 50 51 50 50 52 53 53 51 49 50 50 48 46 41 41 42 41 40 39 40 40 41 42 42 41 44 48 56
56 56 57 56 55 56 56 56 56 56 57 56 56 56 55 53 54 53 51 54 53 52 53 53 53 52 51 50 46 45 44 43 42 41 41 40 40 42 43 43 43 42 43
56 56 56 56 56 55 55 55 53 56 55 56 54 56 55 55 55 55 54 52 52 52 53 55 54 53 52 52 49 48 47 47 46 44 42 41 41 41 41 43 43 45 46
54 55 56 56 55 55 55 56 53 54 54 55 56 55 55 55 54 54 55 53 53 53 53 54 54 53 52 54 53 49 46 44 46 47 47 45 42 43 42 43 45 46 46
53 55 56 55 56 56 56 55 52 51 50 52 52 55 54 56 54 54 55 54 56 57 56 56 55 54 55 52 52 52 51 49 44 42 46 47 46 43 44 44 43 45 43
52 53 55 55 55 55 55 54 53 51 50 52 53 53 54 56 56 56 57 56 58 58 57 57 57 57 55 53 51 50 51 51 51 49 45 48 46 46 47 46 44 41 42
51 52 53 53 54 55 55 55 53 52 52 52 53 54 53 54 54 56 56 57 57 57 56 55 54 57 54 55 53 54 52 51 50 50 50 50 49 47 48 49 46 44 42

GFSSE_sfc_30mbdewp_072.txt.gz
Dewpoint
66 68 70 71 70 70 70 70 70 70 70 69 70 70 69 69 68 68 67 67 66 66 66 66 66 65 66 66 66 67 66 66 66 66 65 65 64 64 65 65 65 65 65
67 68 70 71 71 70 70 70 70 70 69 69 69 69 69 68 68 68 67 67 67 67 66 66 66 65 65 66 66 66 66 66 66 65 65 65 64 64 64 65 64 64 64
66 67 68 71 71 70 70 70 70 70 70 69 69 69 69 68 68 68 68 68 67 66 66 65 65 65 65 66 66 65 65 65 64 63 63 62 63 63 63 63 63 62 62
63 67 67 69 70 70 70 69 70 70 69 69 69 69 68 68 68 68 67 66 66 66 65 64 64 64 65 65 65 65 65 65 62 60 60 60 61 61 61 61 61 60 60
62 63 66 68 69 71 70 69 69 69 69 69 69 69 68 69 68 67 66 65 65 65 64 64 64 64 64 63 63 62 62 62 61 58 59 59 59 60 59 59 59 59 59
63 63 67 67 69 70 70 69 68 69 69 68 69 69 69 68 68 67 66 64 64 64 63 63 63 63 62 60 58 57 57 56 57 54 57 59 59 60 58 57 57 56 56
64 65 67 67 68 69 69 68 67 67 68 68 69 68 68 67 66 66 65 64 63 63 63 63 62 62 60 57 58 56 55 55 52 53 55 57 56 56 56 56 56 56 56
64 67 67 66 67 66 66 66 66 63 64 67 68 68 67 66 65 65 64 64 64 64 63 63 62 61 59 58 55 54 55 54 51 53 55 56 57 55 55 55 55 55 54
65 67 66 66 65 65 65 63 60 60 61 65 67 67 66 65 65 65 64 64 64 64 63 62 62 61 59 56 55 54 53 54 51 53 54 55 55 55 55 54 54 54 53
64 66 67 66 66 64 62 61 59 59 61 61 66 66 65 65 65 64 64 63 63 63 62 61 61 60 58 56 53 51 53 52 50 52 54 56 55 54 54 54 53 53 53
61 63 65 65 65 64 62 61 60 61 60 63 66 65 65 64 64 63 63 63 63 62 62 61 61 59 56 54 53 55 52 50 51 53 55 56 54 54 54 53 53 53 53
57 63 64 65 64 63 63 62 62 63 59 64 65 64 63 63 64 63 63 62 62 62 61 61 60 56 53 53 52 51 52 51 52 53 55 56 54 54 53 53 53 52 52
56 60 62 63 63 63 62 63 64 62 60 61 63 62 63 63 63 62 61 61 61 61 59 59 56 51 49 51 51 52 53 51 52 53 56 55 54 54 53 53 52 52 51
56 58 61 63 63 63 64 63 64 64 64 64 63 63 63 62 63 62 56 58 56 55 54 53 52 50 47 49 52 52 52 52 53 54 56 55 54 53 53 53 52 51 51
56 59 61 61 63 63 63 64 64 64 63 63 62 61 61 61 60 60 55 54 53 54 52 51 52 50 49 47 52 51 51 52 53 54 55 55 54 53 53 53 52 52 51
57 59 59 59 60 62 62 63 63 62 62 61 61 60 60 60 59 59 55 53 54 53 53 51 53 51 49 49 50 50 51 52 53 54 55 55 54 55 53 53 53 52 52
58 59 58 58 59 60 61 62 62 61 60 60 59 58 59 59 58 58 57 53 54 54 53 52 51 51 49 48 49 50 51 51 53 54 54 55 56 56 55 55 53 53 53
57 58 58 58 59 59 60 60 60 61 60 59 59 59 58 59 59 58 56 55 54 54 54 54 51 50 49 48 47 48 49 50 51 53 53 54 55 55 56 56 55 55 54
57 59 58 58 58 58 59 59 60 59 59 59 58 58 59 59 58 57 57 57 57 54 55 52 51 49 48 48 47 47 47 48 50 48 52 53 54 53 55 57 57 57 56
57 58 58 58 59 58 59 59 58 58 58 58 58 59 57 57 56 56 57 54 56 54 53 52 50 50 48 47 43 44 46 46 47 47 47 48 53 53 54 54 56 57 57
58 58 58 57 58 58 58 57 57 56 57 56 57 57 58 58 55 56 56 57 54 53 52 53 53 51 51 50 47 45 45 46 46 44 44 45 45 47 47 53 54 55 56
55 57 57 56 57 57 58 57 57 57 56 55 55 57 57 57 55 54 55 55 55 54 52 53 52 53 52 51 47 46 46 46 47 48 46 44 44 45 46 46 52 52 51
54 56 56 57 57 57 57 57 56 56 56 55 54 55 56 55 55 54 54 54 55 55 54 54 54 53 52 53 52 50 48 47 49 48 48 48 46 47 46 46 47 47 48
54 55 57 56 56 57 57 56 55 54 53 52 50 52 56 55 54 53 54 54 55 55 56 56 57 55 55 51 53 54 55 54 48 49 51 50 50 48 48 48 47 48 47
54 54 57 56 56 56 56 55 55 54 53 52 49 49 55 55 54 54 54 56 56 55 57 57 56 56 54 53 53 53 52 52 52 48 47 50 50 51 49 48 47 47 48
54 54 56 56 56 55 56 55 55 54 53 52 51 50 54 54 56 55 56 57 57 57 56 55 56 55 55 53 53 53 51 49 50 50 50 50 50 50 51 49 49 49 48

GFSSE_sfc_30mbdewp_075.txt.gz
Dewpoint
67 71 70 70 70 70 70 70 70 70 70 70 70 70 69 69 68 68 67 67 66 66 66 66 67 67 67 67 67 67 67 67 66 66 66 66 65 65 65 66 65 65 66
68 70 71 70 70 70 70 70 70 70 70 70 70 69 69 68 68 68 67 67 67 66 65 66 66 65 66 66 67 67 67 66 66 66 65 65 64 64 64 65 65 65 65
68 70 71 70 70 70 70 70 70 70 70 70 70 69 68 68 68 67 68 68 68 67 66 64 64 64 66 67 66 66 65 65 65 65 64 64 64 64 64 64 64 64 63
67 68 70 71 70 70 70 70 70 70 70 70 69 69 68 68 68 69 68 68 67 67 65 64 64 65 66 66 66 65 65 64 63 62 62 62 63 63 63 63 62 62 61
67 67 69 70 71 70 70 69 70 69 69 69 69 68 68 68 69 68 67 67 67 66 64 64 64 65 66 66 66 65 63 62 61 59 59 61 61 62 61 60 60 59 59
63 66 68 69 71 70 70 69 69 69 69 69 69 68 69 68 68 67 66 67 66 65 65 64 64 64 63 63 63 61 58 60 58 59 60 60 60 60 58 57 57 57 57
64 67 67 67 70 70 70 69 69 68 67 69 68 68 69 68 67 66 66 66 65 65 64 64 64 62 61 61 58 56 58 57 56 57 57 58 58 58 57 57 56 55 56
65 67 67 67 69 69 69 68 67 64 62 60 62 67 68 68 66 65 65 65 65 64 63 64 63 60 60 58 56 55 57 56 56 56 56 56 57 56 56 56 56 55 55
64 67 66 67 67 67 67 66 64 64 63 62 60 66 66 66 66 65 65 65 65 64 63 63 62 61 57 56 53 55 56 56 55 56 56 55 56 55 55 55 55 55 54
64 65 67 66 65 65 63 63 63 62 61 61 59 63 66 65 65 65 65 64 64 64 63 62 61 59 56 53 54 57 56 55 54 55 55 56 55 55 55 54 54 54 54
64 64 64 66 64 63 61 61 62 61 61 61 61 58 65 64 64 64 64 64 63 63 63 62 60 57 55 55 55 55 52 53 54 55 56 57 55 54 54 54 54 54 54
59 61 64 64 65 63 61 61 61 60 61 62 61 60 65 63 62 63 63 63 63 62 62 61 58 55 53 52 51 52 52 54 54 55 56 56 55 54 54 54 54 54 53
58 61 61 62 63 64 62 61 62 60 61 61 60 61 64 63 63 63 62 62 62 61 59 58 55 53 51 51 50 52 52 54 54 55 56 56 55 54 54 54 53 53 53
57 58 61 62 62 63 64 62 62 60 61 61 63 64 64 62 62 61 60 60 60 58 57 55 51 50 50 50 50 53 52 53 54 55 56 55 55 54 54 53 53 53 52
57 60 59 60 63 63 63 63 63 61 61 60 63 64 63 62 60 58 58 57 56 56 54 51 51 47 48 49 51 52 53 54 54 55 55 55 55 55 54 53 53 52 52
59 59 58 57 60 63 62 63 64 63 63 61 62 62 63 62 58 56 55 53 54 53 50 51 52 47 47 48 51 52 53 53 54 55 55 55 54 53 54 53 53 53 52
59 58 57 58 59 61 61 62 63 63 62 61 62 61 61 60 58 56 53 53 54 53 49 51 52 50 49 51 50 52 53 53 53 54 55 55 54 54 55 55 54 53 53
59 57 57 58 59 60 61 62 61 62 61 61 60 60 59 58 59 56 52 53 54 53 51 52 52 50 49 48 49 50 52 53 54 54 54 55 55 55 55 56 55 55 54
59 57 57 57 58 59 60 61 61 61 60 60 59 59 58 58 58 58 55 54 56 53 54 53 51 50 47 47 48 48 49 53 53 54 54 54 55 55 56 56 56 56 56
59 58 57 57 58 59 59 60 59 59 59 59 58 58 58 57 57 56 58 57 57 54 56 52 51 50 49 48 46 46 48 50 52 53 53 54 54 54 55 55 57 56 56
58 58 57 58 58 58 57 57 57 56 58 58 58 57 58 57 57 57 58 57 58 56 55 52 51 49 49 48 46 46 46 47 47 48 50 53 53 53 54 54 56 56 56
57 57 57 57 57 58 57 57 57 57 57 58 57 57 56 56 56 56 56 56 58 56 56 54 51 52 50 50 45 45 43 45 47 46 46 46 48 50 52 53 54 55 55
57 57 57 56 57 58 57 57 57 57 56 56 56 55 55 55 56 55 56 56 57 57 55 53 52 50 50 51 47 47 47 43 46 48 47 46 44 45 46 47 53 54 54
54 56 56 56 57 57 57 56 56 55 54 54 55 55 54 57 56 55 55 55 55 54 53 54 54 52 52 50 53 54 54 52 49 48 52 47 48 46 46 46 46 50 52
53 56 56 57 57 56 57 56 56 55 55 54 53 53 55 55 56 54 54 54 55 55 54 55 55 54 54 53 51 51 52 52 52 49 45 49 51 50 48 48 47 47 47
55 55 56 56 56 56 57 56 55 54 54 53 52 52 53 54 56 54 55 54 54 55 56 56 56 55 55 53 53 52 50 49 48 49 48 49 49 50 51 49 48 48 48

GFSSE_sfc_30mbdewp_078.txt.gz
Dewpoint
68 70 70 70 70 70 70 70 69 70 70 70 70 70 70 69 69 68 68 67 68 68 67 68 68 68 68 67 68 68 68 68 67 67 67 66 65 65 66 66 66 65 66
69 70 70 70 70 70 70 70 69 70 70 70 70 69 69 69 68 68 67 68 68 67 67 67 67 67 67 67 67 67 67 67 66 66 66 64 65 64 65 65 65 65 65
69 70 70 70 70 70 70 70 70 70 70 70 69 69 68 68 68 67 67 67 67 67 66 65 66 66 66 67 67 67 67 66 66 65 65 64 64 64 64 65 65 65 64
68 70 70 70 70 70 70 70 70 70 70 69 69 68 68 68 68 69 68 67 67 67 65 64 64 65 67 66 66 66 65 65 64 64 63 64 64 64 64 63 63 62 61
68 70 70 70 70 70 70 70 70 70 70 69 68 68 68 68 69 69 68 68 67 66 63 63 65 66 66 66 65 64 63 62 62 61 62 63 63 63 62 61 60 59 59
67 68 70 70 70 70 70 70 70 70 69 68 68 68 68 69 69 68 68 67 67 66 65 65 66 66 66 65 63 63 61 61 60 60 61 61 61 62 60 60 59 58 58
66 67 69 70 70 70 70 70 70 69 69 68 68 68 69 69 68 68 67 67 66 65 65 66 66 65 64 61 60 61 60 59 58 58 59 59 59 59 57 56 56 56 56
66 67 67 69 70 70 69 69 67 64 64 62 60 59 66 67 67 67 67 66 66 65 65 65 64 62 60 59 61 60 59 58 56 56 56 56 58 58 57 55 56 55 55
66 66 66 68 70 70 69 68 64 63 63 63 62 61 62 65 65 67 67 66 65 65 65 64 62 60 58 59 59 59 58 57 55 56 55 55 56 56 55 55 55 55 55
66 66 66 67 66 67 67 66 63 65 64 63 62 61 61 65 65 65 66 65 64 64 64 63 61 59 58 58 59 58 58 57 55 55 55 56 56 55 55 55 55 55 54
63 64 66 65 65 64 64 64 64 64 63 62 62 59 64 64 64 64 65 65 64 63 63 62 60 58 58 59 58 58 56 55 55 56 56 57 55 55 55 55 55 55 55
62 62 63 65 64 63 62 63 63 63 62 61 61 60 64 64 63 64 64 64 64 63 63 61 58 57 55 56 56 55 54 55 55 56 56 57 55 55 55 55 55 55 54
59 60 63 64 63 62 62 61 61 61 61 61 61 59 63 63 64 64 63 63 62 62 61 59 56 52 51 52 53 53 54 54 55 56 57 56 55 55 55 55 55 54 54
58 60 61 61 63 62 61 60 60 60 61 61 60 59 61 63 63 62 61 61 60 59 58 55 52 51 51 52 53 53 54 54 55 56 57 56 56 55 54 54 54 54 53
57 60 60 62 62 63 61 61 61 59 60 61 60 60 59 62 61 60 59 60 58 57 55 52 51 50 50 52 52 53 54 54 55 56 56 56 56 55 54 54 54 53 53
58 59 58 59 62 63 62 61 61 59 60 60 63 61 60 61 60 59 58 57 56 54 52 50 50 48 49 52 52 53 54 54 55 55 55 56 56 56 55 54 54 53 53
58 58 57 56 59 61 62 63 62 60 61 62 63 63 62 60 58 58 56 54 54 52 50 51 50 48 47 52 52 53 54 54 54 54 54 55 55 56 55 55 54 53 53
58 57 57 58 58 60 61 62 63 62 61 62 62 62 61 58 57 54 52 53 52 50 49 51 51 48 47 51 52 53 53 53 54 54 54 54 54 54 55 56 55 55 53
57 56 56 57 57 59 60 61 61 62 61 62 62 61 61 57 55 51 50 52 51 48 50 52 52 49 47 49 51 52 53 53 53 54 54 54 54 54 55 56 56 56 55
57 56 56 57 57 58 60 60 61 61 61 61 61 60 60 58 55 52 53 55 52 49 51 53 52 50 49 48 48 50 52 53 53 53 53 54 54 55 55 55 56 56 56
56 56 56 57 58 58 58 58 58 58 59 59 59 58 58 58 57 54 53 57 54 53 53 53 51 49 48 48 47 47 48 52 53 53 54 54 54 54 54 55 55 55 56
56 56 56 56 57 56 57 57 57 58 58 58 58 57 57 57 56 56 54 57 57 55 55 52 50 50 49 48 46 45 44 46 49 49 52 53 53 53 54 54 55 55 55
56 56 56 56 57 57 57 57 57 57 57 57 57 57 57 57 56 56 57 57 58 56 54 53 51 50 48 49 46 46 44 41 45 47 47 49 51 52 53 53 54 54 55
56 57 57 56 57 57 57 56 56 55 54 56 56 57 56 56 56 56 56 57 57 56 55 54 54 51 50 48 48 52 50 49 44 46 50 47 46 47 49 50 52 53 54
56 56 56 56 57 57 57 56 55 55 54 55 56 55 55 56 57 56 56 56 56 55 54 55 55 53 52 51 46 53 53 53 51 47 45 49 50 48 46 46 47 48 52
55 55 56 55 56 57 56 56 55 54 54 54 54 54 54 55 56 56 56 56 56 55 53 54 56 54 52 52 52 50 51 50 50 49 48 47 48 49 50 49 48 47 47

GFSSE_sfc_30mbdewp_084.txt.gz
Dewpoint
65 68 69 68 69 69 70 71 71 71 71 70 70 71 71 70 70 70 69 69 69 69 68 68 69 69 67 67 68 68 68 68 68 67 67 66 66 66 66 67 66 66 66
66 69 69 68 69 69 69 70 71 71 71 71 71 70 70 70 70 69 70 69 70 69 67 68 69 68 68 68 68 68 68 68 67 67 66 66 65 65 66 66 66 65 66
67 69 70 69 69 69 69 70 71 71 71 71 71 70 70 70 69 70 70 69 69 67 66 68 68 67 68 68 68 68 67 67 67 66 66 65 65 65 65 66 66 65 65
67 69 70 69 69 68 70 69 70 70 71 71 70 70 70 69 69 69 69 68 68 68 68 68 67 67 68 68 68 67 67 67 66 65 64 64 64 65 65 65 64 64 64
68 69 69 70 69 68 70 69 70 70 69 70 70 70 69 69 69 69 69 68 68 68 68 66 67 67 68 67 67 67 66 65 65 64 64 64 64 63 63 62 62 63 63
68 69 69 70 69 68 69 70 69 70 70 69 69 69 69 69 69 69 68 68 67 67 67 67 67 67 67 66 66 65 65 64 63 63 63 64 63 62 60 59 61 61 61
68 68 68 69 69 68 68 70 70 69 69 69 69 67 67 66 66 68 66 66 66 66 67 67 67 66 66 65 65 64 63 63 62 62 62 62 62 61 60 59 58 58 58
67 67 67 69 69 68 68 69 69 69 69 68 66 65 65 66 65 65 65 65 65 65 67 67 66 66 65 64 64 63 62 61 59 60 61 62 62 61 60 58 58 58 58
66 67 67 68 69 68 68 68 68 67 66 65 65 65 65 65 64 64 65 64 64 65 66 66 65 65 64 63 62 61 60 59 57 59 60 60 61 60 58 57 56 56 56
65 66 66 68 68 69 69 67 65 64 64 64 64 64 62 61 63 64 65 64 64 65 66 65 63 64 63 62 61 59 59 56 55 56 58 59 60 59 57 55 56 54 54
64 65 66 66 67 68 67 66 64 63 63 63 63 62 61 61 61 62 64 64 62 64 65 63 64 63 62 61 60 59 56 55 55 55 55 58 56 54 55 55 54 54 54
63 64 65 66 66 66 66 66 64 63 63 62 62 62 61 62 61 60 63 63 63 63 63 62 63 62 60 59 59 57 55 55 55 55 55 56 56 55 56 55 54 54 55
63 64 64 64 64 64 64 64 64 64 63 63 62 62 61 61 62 62 62 62 62 63 60 60 62 59 58 58 55 55 55 55 56 56 55 56 57 55 54 53 55 56 55
61 63 63 64 62 63 63 63 63 63 63 62 62 61 61 61 62 62 62 62 61 61 58 59 59 57 57 55 55 55 55 55 56 56 57 56 56 55 55 56 56 55 54
59 60 62 63 63 62 61 62 62 62 63 62 61 61 61 61 61 61 62 62 62 59 56 55 55 55 54 54 54 55 55 55 56 56 56 56 56 56 56 56 55 54 54
58 60 61 62 62 62 61 61 61 61 61 61 60 60 61 61 62 61 62 61 60 59 55 53 53 54 53 54 54 54 55 55 56 56 56 57 56 56 55 54 54 54 54
57 58 59 60 61 61 61 61 60 60 60 60 60 60 61 61 61 62 61 60 59 58 54 51 52 53 53 53 53 54 54 55 55 56 56 56 56 56 56 56 55 54 54
57 58 59 59 60 60 61 60 60 60 59 59 60 59 61 61 61 61 60 59 58 56 52 51 51 52 52 53 53 53 54 55 55 55 55 56 56 56 55 55 55 55 54
57 57 57 58 59 61 61 61 61 59 59 59 60 60 60 61 62 61 60 58 55 54 52 50 50 52 52 52 53 53 54 54 54 54 55 55 55 55 55 55 55 55 55
56 56 57 56 57 59 61 62 61 60 59 59 60 61 60 60 62 60 58 56 56 53 52 50 49 52 52 52 52 52 53 53 54 54 54 54 54 55 55 56 56 55 55
55 56 56 55 56 58 58 59 60 59 59 59 60 61 61 60 61 59 55 54 54 53 51 50 49 51 51 52 51 51 51 52 53 53 53 53 53 54 54 55 56 55 55
55 55 55 55 56 57 57 58 59 59 60 60 60 60 59 58 57 55 54 53 51 51 51 50 48 50 50 52 50 49 49 50 51 53 53 53 53 54 54 54 55 55 55
54 54 54 54 55 56 58 57 58 59 59 59 60 59 58 57 55 54 52 51 49 50 50 50 49 48 50 50 51 49 47 47 49 51 52 53 53 53 53 54 54 54 55
55 55 54 54 54 55 57 57 56 56 56 57 58 59 57 56 54 54 52 50 49 49 50 51 50 48 50 49 49 50 48 47 48 47 49 51 53 52 53 53 53 54 54
55 54 54 54 54 57 57 57 57 56 56 57 58 58 58 57 55 55 55 52 52 52 53 53 52 50 50 49 48 49 49 49 48 45 44 48 49 51 52 53 53 53 54
54 53 54 54 54 55 56 56 56 55 56 56 56 56 57 57 57 56 56 55 55 54 55 54 53 52 50 49 48 49 48 47 47 47 46 47 46 47 49 51 52 52 53

GFSSE_sfc_30mbdewp_087.txt.gz
Dewpoint
65 68 69 68 68 71 71 71 71 71 71 71 71 71 71 71 71 71 71 71 70 69 68 68 69 69 68 68 69 69 69 68 68 67 67 67 67 67 67 67 66 65 67
65 68 69 68 68 70 71 71 71 71 71 71 71 71 71 71 71 70 70 70 69 69 68 68 70 69 68 69 69 69 68 68 67 67 67 67 66 66 66 66 65 66 66
67 68 68 68 68 70 71 71 71 71 71 71 71 71 71 71 70 70 70 70 69 69 69 69 69 68 68 69 69 68 68 68 67 67 66 65 65 66 66 66 66 66 66
68 68 68 67 68 70 71 71 70 72 71 71 71 71 71 70 70 70 70 69 69 69 69 68 68 68 69 69 68 68 68 67 67 66 64 64 65 65 65 65 65 65 65
67 68 68 67 67 68 70 71 70 70 71 71 71 71 70 70 70 70 70 69 68 68 68 67 68 69 68 68 68 67 67 66 65 63 63 63 63 65 65 65 64 64 63
67 67 68 67 67 68 70 70 69 69 70 71 70 70 70 70 70 67 67 68 68 69 68 67 68 68 68 67 67 66 65 64 63 61 62 63 62 63 62 62 63 63 63
67 68 68 68 67 69 69 70 70 68 69 70 70 70 70 69 67 66 66 65 67 67 67 67 67 68 67 66 66 65 64 63 61 62 62 62 61 60 60 59 60 61 62
67 68 67 68 68 68 68 69 70 69 68 69 70 69 68 67 65 66 65 64 65 67 67 67 67 67 66 66 65 64 63 63 61 61 61 61 61 60 60 60 60 60 60
68 67 66 68 68 68 68 69 69 69 69 69 68 67 66 66 65 65 64 63 64 66 66 66 66 66 65 64 63 62 61 62 61 60 60 60 62 60 60 59 59 59 58
67 67 66 67 68 68 68 68 68 68 68 66 66 65 65 65 65 65 65 64 64 66 66 66 66 65 64 63 62 61 60 60 59 58 58 60 61 60 59 58 57 57 56
66 67 66 67 68 68 68 67 67 67 66 65 65 64 63 64 64 64 64 63 63 65 66 65 65 64 63 62 61 59 58 57 57 56 57 61 60 59 57 54 57 54 56
64 65 66 67 67 68 67 66 66 66 65 64 64 63 64 64 63 63 63 63 63 65 65 64 64 63 61 60 59 57 57 57 56 56 56 59 59 57 57 56 55 55 54
64 64 65 66 67 67 66 66 65 65 64 64 63 62 63 62 62 62 63 63 64 64 64 64 62 61 60 59 58 57 57 57 56 55 55 57 57 57 57 54 53 53 54
62 64 64 65 65 65 65 65 64 63 63 63 63 62 62 62 61 61 62 62 62 63 63 62 61 60 59 58 57 57 56 55 55 54 54 57 58 57 56 53 56 57 56
60 63 64 64 64 64 64 64 64 64 63 63 62 62 62 61 61 61 61 62 62 61 61 61 59 59 58 57 57 56 56 56 55 54 54 56 57 56 55 57 57 57 56
59 61 64 63 64 63 62 63 63 63 64 63 62 62 61 61 61 62 62 61 62 60 60 59 58 58 57 56 56 56 55 55 55 55 54 55 55 57 58 57 57 56 56
58 60 62 63 63 63 62 62 62 62 63 62 61 62 61 61 61 61 61 61 61 59 57 57 57 56 56 55 55 55 55 55 55 55 55 55 55 57 57 57 56 55 54
56 59 61 62 61 62 63 62 61 61 61 61 61 61 62 62 62 61 61 61 60 58 56 55 55 55 55 54 54 54 54 54 55 55 55 55 55 54 56 56 56 55 55
56 58 60 61 60 61 62 61 61 60 60 60 61 60 61 61 61 61 61 61 59 57 55 54 54 54 54 53 53 53 54 54 55 54 55 55 55 54 54 55 55 55 55
56 58 59 60 60 61 61 61 61 60 60 60 60 60 60 61 62 61 60 59 59 57 54 53 53 54 54 53 52 53 54 54 54 54 54 55 55 55 55 54 54 53 55
57 57 58 59 59 60 60 60 59 58 59 59 60 60 60 61 62 61 60 58 58 57 53 53 54 54 53 53 52 53 53 54 54 54 54 54 54 55 55 55 54 53 53
55 57 57 58 58 58 59 60 60 60 60 60 60 60 60 60 62 60 58 58 57 57 54 52 53 53 53 53 51 50 49 51 53 54 54 54 54 54 54 55 54 54 54
55 56 56 56 56 57 57 58 59 59 59 59 59 60 60 60 61 59 58 57 57 56 54 52 53 52 52 53 53 50 50 48 50 52 53 53 53 54 54 54 55 55 55
54 56 56 56 56 56 57 56 56 56 56 57 59 59 58 59 60 57 58 57 55 54 54 53 52 52 53 52 53 51 52 52 48 49 52 52 53 53 54 53 53 54 54
55 54 55 55 55 55 57 57 56 56 57 58 59 57 56 56 56 56 56 53 52 53 54 53 51 52 54 52 51 51 51 51 52 50 48 50 52 53 53 53 53 53 54
54 54 55 55 55 55 56 57 56 56 57 57 57 56 55 55 56 53 53 52 52 52 53 53 53 52 53 53 52 52 50 48 48 49 47 49 50 51 52 53 54 54 54

GFSSE_sfc_30mbdewp_090.txt.gz
Dewpoint
58 62 70 70 69 70 71 71 71 71 71 71 71 71 71 71 71 72 71 71 71 70 69 69 69 69 68 68 69 70 70 69 68 68 68 68 67 67 67 67 66 65 67
59 65 69 69 69 71 71 71 71 71 71 71 71 71 71 71 71 72 71 71 71 70 69 69 69 69 68 69 70 69 69 68 68 68 67 67 67 66 66 65 65 66 67
62 65 68 69 69 71 71 71 72 71 71 71 71 71 71 71 71 71 71 70 70 70 69 69 69 69 68 70 69 69 68 68 68 67 66 64 65 66 67 67 67 66 66
62 65 66 68 69 70 71 71 72 72 71 72 71 71 71 71 71 70 70 70 69 69 69 68 68 69 69 69 69 68 68 67 67 66 63 63 64 66 65 65 66 66 65
62 63 66 68 68 70 71 71 71 72 72 71 71 71 71 71 70 70 70 69 69 69 69 68 69 69 69 69 68 68 67 66 65 63 62 63 63 65 65 65 65 65 64
61 63 67 67 68 69 70 70 69 71 71 71 71 71 71 70 70 70 69 69 69 68 68 68 69 69 68 68 68 67 66 65 64 61 62 63 63 65 65 65 65 65 64
61 64 67 67 67 68 70 70 69 70 70 71 71 71 70 70 70 69 68 68 68 68 67 68 69 68 68 67 66 65 64 63 60 60 61 62 63 63 63 63 63 63 63
63 66 67 67 68 68 69 70 69 69 70 70 70 70 70 69 67 67 67 67 67 66 67 68 68 68 67 66 65 64 63 62 60 60 60 61 62 61 60 62 62 62 61
65 66 68 68 67 67 68 69 69 68 68 70 70 69 68 66 66 66 66 66 66 66 67 67 67 67 66 65 64 63 62 61 58 60 60 60 62 60 59 60 60 60 59
67 67 67 68 67 67 67 68 69 68 68 68 68 68 66 66 66 66 65 65 66 67 67 67 66 66 65 64 63 62 62 61 58 59 59 60 61 60 59 59 59 59 58
66 67 67 68 68 67 67 68 68 68 68 67 67 66 66 65 65 64 64 64 64 65 67 66 66 65 64 63 62 61 61 58 58 57 59 62 61 60 58 58 57 56 56
63 66 67 67 67 68 66 68 67 67 66 67 66 66 65 64 64 63 63 62 64 65 66 66 65 64 63 62 62 61 59 57 56 56 57 61 61 59 56 57 56 56 56
60 65 66 67 67 67 68 67 67 67 66 65 65 65 64 65 64 62 63 64 65 65 64 65 64 63 61 61 60 59 57 58 56 55 58 60 59 58 57 56 55 57 56
56 62 66 66 67 67 68 67 67 67 66 66 65 65 65 64 63 62 62 62 63 64 64 64 64 62 60 59 59 59 57 55 53 52 56 58 58 58 57 56 54 54 56
54 60 65 67 67 67 67 66 66 66 66 65 65 63 63 63 62 62 61 63 62 64 63 63 62 61 60 59 58 57 56 54 53 50 52 57 58 59 56 55 57 56 56
49 57 63 65 66 66 66 66 65 65 65 65 65 64 63 62 61 60 61 62 63 63 63 62 62 60 59 57 57 56 55 54 53 51 50 55 58 57 56 57 57 57 57
47 54 61 65 65 65 65 65 65 65 65 64 64 63 63 62 62 61 61 62 63 62 62 62 61 59 57 56 56 55 54 53 51 51 51 55 55 57 58 58 58 57 56
44 51 58 64 65 65 64 64 64 64 64 64 63 63 62 62 62 61 62 61 62 61 61 61 60 58 56 55 54 54 52 50 51 52 51 54 54 54 57 58 58 57 57
41 50 57 63 64 64 64 63 63 63 63 63 62 62 62 62 62 62 61 62 61 60 59 60 60 57 55 54 53 52 51 51 51 50 50 52 54 53 54 56 56 56 56
42 50 56 61 63 63 64 63 62 62 62 62 62 61 61 62 62 62 61 61 60 59 59 59 57 56 54 53 51 51 52 52 52 49 49 50 51 52 53 54 55 54 55
44 52 55 59 62 62 62 61 60 60 60 60 61 61 61 62 62 62 61 60 59 58 58 59 56 55 53 53 52 52 54 53 53 50 49 50 50 52 52 51 52 51 53
45 52 54 58 60 62 61 60 59 59 60 60 60 61 60 61 61 62 60 59 59 58 58 58 56 55 53 54 52 52 51 52 53 52 49 50 51 51 51 52 51 50 50
48 52 54 57 60 61 59 58 59 60 60 60 60 60 60 60 61 61 60 59 59 58 57 57 56 54 53 54 52 49 48 46 50 52 52 50 51 51 50 51 51 52 52
48 52 54 56 59 59 58 57 57 56 57 59 59 60 60 60 60 60 59 59 59 58 57 57 57 55 54 53 53 50 48 44 47 48 51 51 51 51 51 50 51 52 53
48 53 56 57 57 57 57 56 56 55 55 56 58 59 59 60 60 59 59 59 58 58 58 56 56 55 54 53 52 52 52 51 49 44 45 48 51 51 52 53 51 52 53
51 55 56 56 56 56 57 55 55 54 55 56 58 58 57 57 59 59 59 59 58 58 57 56 56 56 55 54 53 52 51 50 49 47 43 46 48 50 51 52 54 53 53

GFSSE_sfc_30mbdewp_093.txt.gz
Dewpoint
51 64 70 71 70 71 71 71 71 71 71 71 71 71 71 72 72 72 72 71 71 71 70 70 69 69 69 68 69 70 70 70 69 69 69 68 67 67 67 66 66 66 68
54 64 70 70 70 71 71 71 71 71 71 71 72 71 72 72 72 72 72 71 71 70 70 70 69 69 68 69 70 69 69 69 69 68 68 68 67 66 66 66 66 67 67
57 63 68 69 70 70 71 71 71 71 71 71 72 72 72 72 72 72 72 71 71 70 69 69 69 69 68 70 69 69 69 68 68 68 67 63 65 66 67 67 67 67 66
56 63 65 69 70 71 71 71 71 72 72 71 72 71 71 72 71 71 71 71 71 70 69 69 69 69 70 69 69 69 68 67 67 66 63 63 65 66 66 66 67 66 66
53 60 66 69 70 71 71 71 72 72 72 72 72 71 71 71 71 71 70 70 70 70 69 69 69 70 70 69 68 68 67 66 65 64 63 63 64 66 65 65 65 65 64
53 57 68 68 69 70 71 71 72 72 72 71 71 71 71 71 71 71 69 70 70 70 69 68 69 69 69 68 68 67 66 65 65 63 63 64 63 65 65 66 66 65 65
54 58 67 67 68 70 70 71 70 70 71 71 71 71 70 70 69 68 69 69 69 69 68 68 69 69 68 68 67 66 65 63 62 62 63 64 65 65 65 64 64 64 64
56 60 66 67 68 69 70 70 68 69 70 71 70 71 70 70 67 68 69 68 68 68 67 68 68 68 67 67 66 65 64 63 62 62 62 63 64 64 64 63 63 63 62
60 63 66 66 67 68 69 70 68 68 70 70 70 70 70 69 68 68 68 66 66 68 68 69 68 67 67 66 65 64 63 62 60 61 61 61 62 62 62 62 62 61 61
63 65 66 67 66 67 67 69 69 68 69 70 69 68 67 66 66 66 66 66 66 67 67 68 67 67 66 65 64 63 62 61 60 60 60 61 62 60 60 61 60 59 59
64 65 67 66 66 66 65 67 68 68 68 68 68 68 66 65 65 65 65 65 65 64 63 65 66 66 65 64 63 62 61 59 60 60 61 62 62 60 59 59 58 57 57
62 64 66 67 66 65 63 66 66 66 66 67 66 66 66 64 64 62 64 64 63 64 65 66 65 64 64 63 63 61 59 60 59 61 60 62 61 59 58 58 57 56 57
59 61 66 66 66 66 63 64 64 65 64 65 65 63 62 63 64 64 64 63 63 64 65 65 64 64 62 63 62 60 59 59 57 59 60 62 61 58 58 57 56 56 57
52 58 66 67 66 67 64 64 62 62 65 65 65 65 64 64 65 64 63 62 62 64 64 64 64 62 61 61 62 59 58 58 55 58 60 60 60 58 57 56 57 56 55
43 53 62 67 65 66 67 66 65 65 63 64 65 65 64 64 64 63 61 61 64 64 63 63 63 63 62 60 60 58 58 56 55 56 57 59 59 59 57 55 55 57 54
35 46 61 65 66 65 66 67 66 66 66 65 64 65 65 64 63 62 61 61 62 63 63 63 62 62 62 59 59 58 56 54 51 49 54 56 59 58 57 56 55 57 57
32 37 57 64 66 66 66 67 66 65 65 65 65 65 64 64 63 61 61 62 62 63 63 62 62 62 61 59 57 56 53 51 50 49 52 54 57 58 57 58 58 57 57
29 37 48 60 66 66 65 66 65 65 65 65 65 65 65 64 63 62 62 62 63 63 63 62 61 60 59 58 55 54 51 51 50 49 51 53 54 54 57 58 59 58 58
27 34 46 57 65 65 65 65 65 65 65 65 64 64 64 64 63 62 62 62 63 62 62 61 61 60 58 55 54 52 50 47 49 48 52 53 54 54 54 58 58 58 57
24 33 44 55 65 65 65 64 64 64 64 64 64 64 63 63 62 62 62 62 62 61 61 61 60 60 58 54 51 51 49 48 48 48 49 53 53 54 54 55 56 56 57
26 34 45 52 63 64 63 62 62 63 62 63 62 63 63 63 62 61 61 62 62 60 60 60 60 58 57 54 52 52 53 55 50 47 48 48 49 53 52 54 53 52 54
30 35 46 51 58 63 62 62 62 61 61 61 62 62 62 62 62 61 61 61 60 59 59 59 59 57 57 55 51 51 51 53 53 49 47 48 50 49 50 51 52 50 50
32 39 45 50 56 62 63 62 60 61 60 60 60 60 61 61 62 62 61 61 60 59 59 58 59 57 55 54 54 49 49 48 51 51 50 47 50 49 48 49 50 49 50
31 42 46 50 56 61 61 58 59 58 58 59 59 60 61 61 61 61 61 60 59 59 58 58 59 58 55 53 53 52 49 45 48 49 51 48 48 49 50 49 50 50 50
29 41 48 50 55 59 60 57 58 58 57 57 58 59 60 60 61 61 60 60 59 59 59 59 58 57 55 54 53 52 50 48 50 47 47 49 48 48 49 51 50 51 51
28 45 51 52 54 57 58 57 57 56 55 53 57 59 60 60 60 60 60 59 59 59 59 59 59 57 55 55 54 53 51 48 47 46 44 47 48 48 49 50 53 52 52

GFSSE_sfc_30mbdewp_099.txt.gz
Dewpoint
67 70 71 71 71 70 71 71 71 71 71 71 71 70 70 71 71 72 72 72 72 72 70 70 70 70 69 69 70 70 69 68 69 69 70 69 68 68 68 69 68 68 68
67 70 71 71 71 71 70 70 71 71 71 72 71 70 71 71 71 71 72 72 72 71 70 70 70 69 70 70 70 70 69 68 69 69 68 68 67 67 68 68 68 68 68
67 69 70 70 71 71 71 70 70 71 72 72 71 71 71 71 71 71 72 72 72 71 70 70 69 70 69 70 70 69 69 68 68 67 67 67 67 68 68 68 68 68 67
68 69 70 70 71 71 71 71 71 71 72 72 71 71 72 71 71 71 71 71 72 71 70 70 69 69 69 69 69 69 68 67 67 67 67 67 67 67 67 67 67 67 67
66 68 70 70 70 71 71 71 71 71 71 72 71 71 72 71 71 71 71 71 71 71 70 69 69 70 69 68 68 68 67 66 65 66 66 66 66 66 67 67 67 66 65
64 67 69 69 70 71 71 71 71 71 71 71 71 71 71 71 71 71 71 71 71 70 70 70 70 69 68 68 67 67 66 65 64 65 65 66 65 66 66 66 66 65 64
64 67 68 69 70 70 71 71 71 71 71 71 71 71 71 71 71 70 70 70 70 69 70 69 70 68 68 67 67 66 65 64 64 65 65 65 65 65 66 65 65 65 64
66 67 68 69 70 70 70 70 71 71 70 69 70 71 71 71 70 69 69 69 69 69 69 68 69 68 68 67 66 65 64 64 64 65 65 65 65 65 65 65 64 64 63
68 67 68 68 69 70 70 70 70 71 70 68 68 71 71 70 69 68 68 68 68 68 67 68 68 68 67 66 65 65 63 64 64 65 65 65 65 65 64 64 63 62 61
68 67 67 67 68 69 69 69 69 70 68 67 68 68 70 70 68 68 68 67 66 67 68 65 65 64 65 64 65 64 62 64 64 64 65 64 65 64 63 62 62 61 60
67 67 67 67 67 68 68 68 68 68 67 67 68 67 69 69 68 68 68 66 66 66 65 65 64 63 64 64 64 64 62 63 62 62 63 64 64 63 63 62 61 59 59
66 67 67 67 67 67 68 68 67 68 67 67 68 68 69 68 68 67 67 66 65 65 64 64 64 63 62 64 63 63 62 62 62 62 62 63 63 63 62 60 58 57 56
65 68 67 67 67 67 67 68 68 68 68 67 67 68 68 68 67 66 65 65 65 64 64 63 63 64 64 63 62 62 62 62 62 62 62 62 62 61 60 58 57 56 55
64 67 67 67 67 67 67 67 67 67 67 67 68 68 68 66 65 65 64 64 64 64 63 62 63 64 64 64 63 62 61 62 61 61 62 62 62 59 58 57 55 56 55
60 65 67 67 67 67 67 67 66 66 66 67 67 67 67 65 65 64 64 64 64 64 62 62 62 62 62 62 61 61 60 60 61 61 62 61 61 60 58 56 57 57 57
35 64 67 67 67 66 67 66 65 66 65 66 66 66 66 65 65 64 63 63 63 63 62 62 62 61 62 62 62 60 61 60 60 61 61 61 60 60 58 56 57 56 55
27 42 65 67 67 67 66 66 66 66 65 66 66 66 66 66 65 64 63 62 62 63 63 62 62 61 61 62 61 61 61 61 60 60 60 59 59 59 58 59 57 56 54
27 33 64 66 66 67 66 67 66 66 66 66 66 66 65 65 65 64 63 63 63 63 63 62 61 60 60 60 60 61 60 60 59 59 59 59 59 57 57 57 57 55 56
27 29 58 66 66 67 66 67 66 66 65 65 65 66 65 65 64 64 63 63 63 63 62 62 61 60 59 60 60 60 60 58 57 57 58 58 58 57 57 57 58 57 56
29 29 52 66 66 66 66 66 65 65 66 65 64 65 65 65 64 63 63 63 63 62 62 61 61 61 60 60 59 58 59 58 55 56 56 57 57 56 57 57 58 58 57
29 29 52 66 66 66 65 64 64 63 64 65 64 64 64 65 64 63 63 63 62 62 60 61 60 60 59 60 57 58 58 56 53 55 55 56 55 55 56 58 58 58 58
30 32 51 65 66 65 65 64 64 64 64 63 65 64 63 64 64 63 63 62 62 61 61 60 60 59 59 59 55 55 53 53 52 53 54 54 54 55 56 57 57 57 56
30 32 58 65 66 65 65 64 63 63 63 63 63 64 64 63 63 62 63 62 62 61 60 60 60 59 57 59 58 53 50 48 49 52 53 54 54 54 55 56 56 56 56
33 35 58 66 65 64 64 63 62 61 60 61 62 62 63 63 63 62 62 62 62 61 60 60 60 59 58 56 58 57 52 49 47 48 52 53 54 54 54 55 55 55 55
38 37 54 65 64 64 63 63 62 61 60 61 62 61 62 62 63 62 62 62 61 61 60 60 60 59 58 57 56 55 51 50 49 47 47 50 53 54 54 53 55 54 54
49 38 44 62 64 63 62 62 61 60 61 59 60 60 60 61 61 61 61 61 61 61 60 60 60 59 58 57 58 56 51 48 48 48 47 49 49 51 52 53 53 54 53

GFSSE_sfc_30mbdewp_102.txt.gz
Dewpoint
67 70 71 71 71 71 71 71 70 70 70 70 70 71 71 71 71 72 72 72 72 72 70 70 70 70 70 69 69 69 68 68 69 69 69 68 68 68 68 69 68 68 68
67 71 71 71 71 71 71 71 71 71 71 70 70 71 71 71 72 72 72 72 72 71 70 69 70 70 70 70 69 69 69 69 69 69 68 68 68 67 68 68 68 69 68
68 70 71 71 71 71 71 71 71 71 71 71 70 70 71 71 72 72 72 72 71 71 70 70 70 70 70 70 70 69 69 69 69 69 68 68 67 67 67 68 68 68 67
68 70 70 71 71 71 70 70 71 71 71 71 71 71 71 71 71 72 72 72 72 71 70 69 69 69 70 70 69 69 68 68 68 68 67 67 67 67 67 67 67 67 67
68 69 70 71 71 70 70 70 71 71 71 71 71 71 71 71 71 71 71 72 72 71 70 69 68 69 69 69 68 68 68 67 67 66 66 67 66 67 67 67 67 67 66
67 68 70 70 70 71 70 70 70 71 71 71 71 71 71 72 71 71 71 72 71 71 70 70 69 69 68 68 67 67 67 66 66 66 66 67 66 66 66 66 66 66 65
66 68 69 70 70 70 71 70 70 71 71 71 71 71 71 72 71 71 71 71 70 70 70 70 69 68 67 67 67 66 65 65 65 65 65 65 66 66 65 65 65 64 64
65 67 69 69 70 70 70 70 70 70 71 70 71 71 71 71 71 70 70 70 70 70 70 69 69 68 67 67 66 65 65 65 65 65 65 65 66 66 65 64 64 64 62
66 67 68 69 70 70 70 70 70 70 70 70 70 71 71 70 70 70 70 69 69 68 69 69 68 67 67 66 65 64 65 65 65 65 65 65 65 65 65 64 63 62 61
66 66 67 68 69 69 69 69 70 70 69 69 69 70 70 70 69 69 69 69 68 67 68 66 66 65 66 65 64 63 64 65 65 65 65 65 65 65 64 63 62 61 60
66 65 66 67 68 68 68 69 70 70 69 67 68 68 69 69 69 68 68 67 67 67 66 65 65 65 65 65 64 63 63 63 64 64 64 65 65 64 63 62 61 61 60
65 65 66 66 67 67 68 68 68 68 67 67 66 66 68 69 68 68 67 66 66 66 65 63 63 64 63 63 64 63 63 63 63 63 64 64 65 63 63 62 61 59 58
65 66 66 66 66 67 67 67 67 68 66 66 66 67 68 68 68 67 66 66 65 65 64 64 64 63 63 63 63 63 63 63 62 63 64 64 64 63 63 60 58 58 57
65 65 66 66 66 66 67 67 66 66 67 66 65 67 68 68 66 66 65 65 64 64 62 62 61 62 63 62 62 61 62 63 62 62 63 63 64 63 61 59 58 56 57
64 66 66 67 66 66 67 66 66 66 66 67 67 67 68 67 65 65 64 64 64 64 62 61 61 62 62 63 62 62 62 62 62 62 62 63 63 62 60 59 58 56 56
63 65 67 67 66 66 66 66 66 66 66 67 67 67 67 66 65 64 63 63 63 63 62 61 61 61 61 62 62 62 61 62 62 62 61 62 61 60 59 58 55 57 56
46 64 66 66 67 67 66 67 66 66 66 66 66 67 67 66 64 63 63 63 63 63 61 61 61 61 61 62 61 62 61 61 61 61 61 61 60 60 59 58 58 57 56
26 52 66 67 66 66 66 66 66 65 65 66 66 66 66 65 64 64 63 62 63 62 62 61 61 60 60 61 60 61 61 61 61 61 60 60 60 59 58 57 59 58 57
26 34 63 66 66 66 66 66 66 65 65 65 66 66 65 65 64 64 63 62 63 62 62 62 61 60 59 60 60 60 61 61 61 61 60 59 59 58 57 58 57 57 56
26 30 58 64 66 66 66 66 65 65 65 65 65 66 65 65 64 64 63 63 62 62 62 61 60 60 59 59 59 60 60 60 60 60 59 58 58 57 57 57 56 55 55
28 28 47 62 65 66 66 65 64 64 65 64 65 65 65 64 64 63 63 62 63 62 61 61 60 60 59 60 59 58 58 59 59 58 59 57 57 56 56 57 57 57 56
25 29 42 61 65 66 66 65 64 64 64 64 64 64 65 65 64 63 63 62 62 62 61 61 60 59 59 60 57 56 53 54 56 57 57 56 56 56 56 57 57 57 57
22 27 39 56 64 65 65 65 64 63 63 63 64 64 64 65 64 63 63 63 62 62 61 60 60 59 58 59 58 55 52 50 53 55 55 55 55 55 55 56 57 57 57
43 33 39 54 64 65 65 64 63 62 61 62 63 63 63 63 64 63 63 62 62 62 61 61 61 59 58 57 57 57 55 52 51 50 54 54 54 54 55 56 56 57 56
51 50 56 59 64 64 65 64 63 62 62 62 62 62 63 63 63 62 63 62 62 62 61 61 60 59 59 57 57 56 56 51 50 51 50 52 53 54 54 55 56 56 55
52 55 55 64 64 64 64 63 62 62 61 61 61 61 61 62 62 62 62 62 61 61 61 61 60 60 59 58 57 56 54 50 50 49 48 51 51 53 53 54 55 55 55

GFSSE_sfc_30mbdewp_105.txt.gz
Dewpoint
65 69 70 71 72 71 70 70 70 70 70 70 70 72 72 72 72 72 72 72 71 71 70 69 70 70 69 69 70 69 69 69 70 69 69 68 68 68 69 69 68 68 68
67 70 70 71 72 71 71 70 70 70 70 71 71 71 71 72 72 72 72 72 72 71 69 69 70 70 69 69 69 69 69 70 69 69 69 68 68 67 68 68 68 68 68
68 70 70 71 71 71 71 70 70 70 70 70 71 71 71 72 72 72 72 72 71 70 69 69 69 70 69 69 69 69 69 69 69 69 69 67 66 67 68 68 68 67 68
68 69 70 71 71 71 71 71 71 71 70 70 71 71 71 72 72 72 72 71 71 71 70 70 70 70 70 69 69 69 69 69 69 68 67 65 66 67 67 67 67 67 67
68 69 70 70 71 71 71 71 71 71 70 70 70 71 72 72 72 72 72 71 71 71 69 69 69 70 69 69 69 69 68 68 67 67 67 66 66 67 67 67 67 67 66
68 69 70 70 70 70 71 71 71 70 70 70 70 71 71 72 72 72 71 71 71 70 69 68 69 69 68 68 68 68 67 67 66 66 66 67 65 66 66 67 66 66 66
67 69 70 69 70 70 70 70 71 70 70 70 70 71 71 71 72 71 71 71 71 70 70 69 69 68 68 67 67 67 66 66 66 66 66 66 66 66 66 66 66 65 65
67 68 69 70 70 70 70 70 70 70 70 70 70 70 71 71 71 71 70 70 70 70 70 69 68 68 67 67 66 66 65 65 65 65 65 66 66 66 65 64 64 65 64
67 68 69 69 70 70 70 70 70 70 70 70 70 70 71 71 70 70 70 70 70 70 69 68 68 67 67 66 65 65 65 65 64 65 65 65 66 65 65 64 64 63 62
66 67 68 68 69 69 69 69 69 69 70 70 70 70 70 70 70 69 69 69 68 67 67 68 67 67 67 66 64 65 65 65 64 64 65 65 65 65 65 63 62 62 61
64 66 67 67 68 68 68 69 69 69 69 69 70 70 69 69 69 69 69 68 67 67 67 67 66 66 66 65 64 64 65 64 64 64 64 64 65 65 64 63 62 61 60
63 64 66 67 66 66 67 68 69 69 69 68 69 69 69 69 68 68 68 68 67 66 66 66 66 65 65 64 64 64 64 64 64 64 64 64 64 64 64 62 62 61 60
63 63 65 66 66 66 67 67 68 68 68 67 67 67 68 68 68 67 67 67 66 66 65 65 65 64 63 64 64 63 63 63 63 63 64 64 63 64 62 62 61 60 59
64 64 65 65 66 66 67 67 67 67 67 66 65 65 67 67 67 66 66 65 65 65 63 63 62 63 63 62 63 62 63 63 62 63 63 63 63 64 63 61 59 59 59
62 65 65 65 65 66 66 65 66 66 65 65 64 65 67 67 66 66 65 65 64 63 62 62 61 61 62 62 62 62 62 62 62 62 63 63 63 64 63 60 59 58 57
56 63 66 65 65 65 65 65 65 65 65 65 65 65 67 67 66 65 64 64 64 63 62 61 60 59 61 62 61 61 61 62 62 62 63 63 63 63 63 61 60 57 57
36 59 65 66 65 65 65 65 65 65 65 64 65 66 67 67 65 64 64 63 63 63 61 61 60 60 60 61 61 61 61 62 62 62 62 62 62 62 61 61 60 57 57
27 44 63 66 66 65 65 66 65 65 65 65 65 66 66 66 65 64 63 63 63 62 61 60 60 60 60 60 60 61 61 62 62 62 62 62 61 60 59 59 58 58 58
25 28 51 66 66 66 66 66 65 65 65 65 66 66 66 66 64 64 63 63 62 62 61 60 60 59 59 59 60 61 61 61 61 62 61 61 60 59 58 58 58 59 58
25 26 32 61 66 66 66 66 65 65 65 65 65 65 65 65 64 63 63 62 62 61 62 61 60 60 59 59 59 59 60 61 61 61 61 60 59 58 58 57 58 58 58
24 26 33 53 65 66 66 65 64 64 64 64 65 65 65 65 64 64 63 62 62 61 61 61 61 60 59 59 58 58 59 60 60 61 61 60 59 58 57 57 57 54 55
16 26 32 51 62 65 65 65 65 64 64 64 65 65 65 64 64 64 63 62 62 61 61 61 60 59 59 59 57 56 54 55 58 59 60 59 58 57 56 56 57 54 53
25 25 31 48 58 64 65 65 64 63 64 63 63 64 65 64 64 63 63 63 62 62 61 61 60 59 58 59 59 55 52 51 53 57 57 58 58 56 56 56 56 56 56
51 51 45 41 58 63 65 64 63 62 61 62 63 64 65 65 64 64 63 63 63 62 61 61 61 60 59 57 59 58 56 54 52 50 55 56 57 55 55 56 56 56 56
49 53 54 43 55 61 64 64 63 62 61 62 63 63 63 64 64 63 63 63 62 62 62 61 60 60 59 58 58 57 57 55 54 52 51 53 54 55 55 55 56 56 56
46 48 53 57 56 62 64 64 63 62 61 62 62 62 62 62 63 63 63 63 62 62 61 61 61 60 60 59 58 57 56 54 52 52 51 52 52 53 54 55 55 56 56

GFSSE_sfc_30mbdewp_108.txt.gz
Dewpoint
64 69 71 71 71 71 70 70 70 70 71 72 72 72 71 71 71 71 71 72 72 71 70 70 70 70 70 70 69 70 70 70 70 70 70 69 68 68 68 69 68 68 68
66 70 71 71 71 71 70 70 70 70 71 72 72 72 72 71 71 71 71 72 71 71 69 70 70 69 70 71 69 70 70 69 70 70 69 69 69 68 68 68 68 68 68
68 69 70 71 71 71 70 70 70 71 70 71 72 72 72 72 72 72 72 72 71 70 70 69 69 69 69 69 69 70 70 70 69 69 68 68 67 67 68 69 69 68 68
68 69 70 70 71 71 70 70 70 71 70 70 71 71 72 72 72 72 72 71 71 70 70 69 69 69 70 69 70 70 69 69 69 67 66 67 67 67 67 67 68 68 67
67 69 70 71 71 71 70 70 70 70 70 70 71 71 72 72 72 72 71 71 71 71 70 70 70 70 69 69 70 69 69 68 68 66 66 67 67 67 67 67 67 67 67
68 69 70 70 71 71 70 71 71 70 69 70 71 71 72 72 72 72 71 71 71 70 68 68 70 70 69 69 69 68 68 67 67 66 66 67 66 66 67 67 66 66 66
68 69 70 70 70 71 71 71 71 70 69 70 71 71 72 72 72 71 71 71 70 70 69 68 70 69 68 68 68 67 67 67 66 66 66 65 66 66 66 66 65 66 66
67 68 69 70 70 70 71 71 70 69 69 70 71 71 71 72 71 71 70 70 70 70 69 69 69 68 68 67 67 66 66 66 66 65 65 65 66 66 66 65 65 64 64
67 68 69 69 70 70 70 70 70 69 69 69 70 71 71 71 70 70 70 70 69 70 69 69 68 67 67 66 66 66 66 66 65 65 65 65 66 66 65 65 65 64 63
67 67 67 68 69 69 69 69 69 69 69 69 69 70 70 70 70 70 69 69 68 69 69 68 67 67 67 65 65 65 65 65 64 65 65 65 65 65 65 63 64 63 62
65 66 66 66 68 68 69 69 69 69 69 69 69 69 69 69 69 69 69 68 68 68 68 67 67 67 66 65 65 65 65 64 64 64 64 65 65 65 65 63 63 62 61
63 64 65 65 66 67 67 68 69 69 69 69 69 69 69 69 69 69 69 68 67 67 67 67 66 66 66 64 65 65 64 64 64 64 64 65 64 65 64 63 62 61 60
62 63 65 65 65 65 66 67 67 68 68 68 68 68 68 68 68 68 68 68 67 66 67 66 66 66 64 63 64 64 64 63 64 64 64 64 63 64 64 63 62 61 60
63 63 63 65 65 65 66 66 65 66 66 67 67 68 67 67 67 67 67 66 66 65 64 65 64 64 64 63 63 63 63 63 63 63 64 64 63 64 63 62 61 61 60
55 63 64 64 64 64 66 65 65 65 66 67 66 66 67 67 67 67 66 65 65 64 63 63 62 62 62 63 63 63 62 63 62 63 63 64 63 63 64 62 61 60 59
44 59 64 64 65 65 65 65 65 65 66 66 65 65 65 66 66 66 65 65 64 64 62 62 61 61 61 62 62 62 62 62 62 62 61 62 63 63 63 62 61 60 58
25 37 62 65 65 64 65 64 65 65 65 65 64 64 65 65 66 65 64 65 64 63 62 61 60 60 61 61 61 61 61 62 62 61 60 61 62 62 63 62 62 61 59
23 26 39 64 65 64 64 64 64 64 64 63 63 64 65 64 66 65 64 64 64 62 61 61 60 59 59 61 60 60 61 61 61 62 62 62 62 62 62 62 62 60 59
23 25 30 56 65 65 64 64 64 64 64 64 63 63 64 65 65 65 64 64 63 62 61 60 59 59 59 60 60 61 61 61 61 62 62 62 62 62 61 61 60 59 58
23 25 27 43 63 65 65 64 64 64 64 64 64 64 64 64 65 65 64 63 63 62 61 61 60 60 59 59 60 60 61 61 61 61 61 62 61 61 59 59 59 58 58
23 24 26 28 47 64 65 64 64 62 64 64 64 64 65 65 64 64 63 63 62 61 61 61 60 59 59 59 58 58 59 60 61 61 61 61 61 60 59 58 58 58 58
20 20 24 27 30 61 62 64 64 64 64 64 64 64 65 64 64 63 63 62 62 61 61 61 60 59 59 59 56 56 54 56 59 60 61 60 60 59 58 57 57 57 57
49 50 47 30 34 55 62 64 64 64 64 63 63 63 64 64 64 63 63 63 62 62 61 61 61 60 58 59 58 55 53 51 54 57 59 60 60 59 58 57 57 55 53
46 47 49 53 42 56 63 63 62 62 61 61 62 63 63 64 64 64 63 63 62 62 62 61 61 60 59 58 58 58 56 54 52 51 56 57 59 58 58 57 56 56 54
43 43 45 48 53 50 62 62 63 62 61 61 63 62 63 63 64 64 63 63 63 62 62 62 61 60 59 58 58 58 57 55 55 53 51 53 56 57 57 56 56 56 56
40 41 43 47 55 49 61 63 63 62 61 61 62 62 62 63 63 63 63 63 63 62 62 62 61 61 60 59 59 57 57 55 54 53 52 53 53 55 56 56 55 56 56

GFSSE_sfc_30mbdewp_111.txt.gz
Dewpoint
63 68 71 71 71 70 70 70 71 72 72 72 71 71 71 71 71 72 72 72 72 71 70 70 71 71 71 70 71 71 70 70 71 70 69 69 68 69 69 69 68 67 69
65 69 71 71 71 70 70 70 71 72 72 72 71 71 71 71 71 72 72 72 72 71 70 70 70 71 71 70 70 70 70 70 70 69 69 68 68 68 69 69 67 68 68
67 69 70 71 71 70 70 70 71 72 73 72 72 71 71 71 71 71 72 72 71 71 70 69 69 70 71 70 69 70 69 69 69 69 68 66 67 68 68 69 69 68 68
67 69 69 71 71 70 70 70 71 72 72 72 72 72 71 71 71 72 71 71 71 71 70 69 69 70 70 70 70 70 70 69 69 68 66 66 66 67 68 68 68 68 67
67 68 69 70 70 70 70 70 70 71 72 72 72 72 72 72 72 72 71 71 71 71 70 69 69 70 69 69 69 70 69 69 67 65 66 67 66 67 67 68 67 67 66
67 68 70 70 70 70 70 70 70 70 71 71 72 72 72 72 72 71 71 71 71 71 71 70 70 69 69 69 69 69 68 67 66 65 66 67 66 67 67 67 67 67 67
67 68 69 69 70 70 70 70 70 69 70 70 71 71 72 72 72 71 71 71 71 70 69 70 70 69 69 69 68 68 68 67 65 65 66 66 66 67 67 66 66 66 67
67 68 69 69 70 70 71 70 69 69 69 70 71 71 72 72 71 71 71 71 70 69 68 69 69 69 68 68 68 67 67 67 66 65 65 65 66 67 66 65 66 66 66
68 68 69 69 69 70 70 70 69 69 69 70 70 71 71 71 71 71 70 70 70 69 69 69 68 68 68 68 67 66 66 66 65 65 64 64 66 66 66 65 65 64 64
67 68 68 68 69 70 70 69 69 68 68 69 70 70 70 70 70 70 70 70 70 69 69 68 68 68 67 67 66 66 66 66 66 65 65 65 66 66 66 65 64 63 63
65 66 66 67 68 69 69 69 69 69 68 69 69 70 70 69 70 70 69 69 69 69 68 67 67 67 66 66 65 65 65 64 66 65 66 66 65 65 65 64 64 64 62
63 64 65 65 66 68 68 69 69 69 68 68 68 69 69 69 69 69 69 68 68 68 67 67 67 66 66 65 65 65 65 65 65 65 64 65 64 65 65 64 64 63 62
61 63 64 65 66 66 66 67 67 68 68 68 68 68 69 69 69 69 69 68 68 68 67 66 66 66 65 65 65 66 65 65 65 64 64 64 65 65 65 64 62 62 61
62 61 64 65 65 65 65 66 66 66 67 67 67 68 68 67 68 68 67 68 68 68 67 67 66 66 66 65 65 65 65 65 65 65 65 64 65 64 65 64 62 61 61
59 63 63 65 65 64 65 65 65 65 66 66 66 67 67 66 66 67 67 67 67 67 66 66 66 66 65 65 64 64 64 64 64 64 65 64 64 64 64 64 62 62 61
36 53 64 64 64 64 64 64 65 65 65 66 67 67 67 66 66 66 66 67 67 66 66 65 65 65 64 64 64 64 63 64 63 64 64 64 63 63 64 64 63 62 60
28 30 53 65 65 64 64 65 65 65 65 65 66 67 67 67 67 66 66 65 66 66 65 65 65 64 64 64 64 63 63 63 63 62 62 62 61 61 63 65 63 62 60
25 28 33 54 64 65 65 65 65 65 65 66 66 66 67 67 66 66 65 65 66 65 65 64 63 63 63 63 62 63 63 62 62 62 61 62 61 62 62 62 63 62 61
21 27 30 37 57 64 65 65 65 65 65 65 65 65 65 66 65 65 65 65 65 64 64 64 63 62 62 61 61 61 62 62 62 62 62 62 62 61 62 63 63 62 61
23 28 31 33 41 60 64 65 65 65 65 64 64 63 63 64 64 65 65 64 64 63 63 62 62 62 62 61 61 61 61 61 61 61 61 62 62 62 62 62 62 61 60
33 31 29 30 36 49 60 62 62 62 63 63 64 63 63 64 64 64 64 64 64 63 62 62 61 61 60 61 59 59 60 61 61 61 62 62 62 62 62 61 62 59 58
48 49 49 47 35 36 53 60 61 61 62 63 63 63 63 64 64 64 64 63 63 63 62 61 61 60 60 60 58 58 56 57 59 60 61 61 61 61 61 60 61 60 57
44 45 46 48 50 50 38 56 61 62 63 63 63 63 63 64 64 64 63 63 63 62 61 61 61 60 59 59 59 57 54 52 56 59 59 60 60 61 60 60 60 60 58
42 43 44 45 47 49 51 46 59 59 59 60 62 63 63 64 63 63 63 63 62 62 62 62 62 61 60 58 59 59 58 56 53 53 57 59 60 60 59 59 59 59 58
38 39 41 43 46 49 52 51 59 60 60 60 62 63 63 63 63 63 63 63 62 62 63 62 62 61 61 59 58 58 58 58 56 53 52 54 57 59 60 59 58 58 56
35 37 39 41 43 48 54 53 59 60 60 60 62 62 62 63 63 63 63 62 62 62 62 62 62 62 61 60 59 58 57 56 55 54 53 53 54 56 58 58 58 58 57

GFSSE_sfc_30mbdewp_114.txt.gz
Dewpoint
60 67 71 71 71 70 71 72 72 71 71 71 71 71 72 72 72 72 73 72 72 72 71 71 71 70 69 69 71 71 71 71 71 70 70 69 69 69 69 69 67 66 69
59 69 71 71 70 70 71 72 72 72 72 71 71 72 72 72 72 72 72 72 72 72 71 71 71 70 70 71 71 70 70 70 70 69 69 69 69 69 68 67 66 68 69
62 68 70 70 70 70 70 71 72 72 72 72 71 72 72 71 72 72 72 72 72 71 70 70 70 70 70 70 70 70 70 70 69 69 68 64 66 68 68 68 68 68 68
63 66 67 70 70 70 70 71 72 73 73 72 71 72 71 71 72 72 72 72 72 71 70 69 69 71 70 70 70 70 70 69 69 68 66 64 65 68 68 68 68 68 68
64 65 67 70 70 70 70 70 72 73 72 72 71 72 71 71 72 72 71 71 71 71 70 69 70 71 69 69 70 69 69 69 68 67 64 64 65 67 68 68 68 67 66
64 64 69 70 70 70 69 70 71 72 72 72 72 72 71 72 72 71 71 71 71 71 71 70 70 70 69 69 69 69 68 67 66 61 64 65 64 67 68 67 67 68 68
64 65 70 70 70 70 69 70 70 71 71 72 72 72 72 72 72 71 71 71 71 71 71 71 70 69 69 69 69 68 68 66 63 62 64 65 65 67 67 67 67 68 68
65 67 69 70 70 70 70 69 69 70 71 71 71 71 72 72 71 71 71 71 71 71 71 70 69 69 69 69 68 68 67 66 63 63 64 64 66 67 67 66 67 67 67
67 68 69 69 69 70 70 69 68 69 69 70 71 71 71 71 71 70 71 71 70 69 68 69 69 68 68 68 68 67 67 66 60 61 63 63 66 66 66 66 65 67 67
67 68 69 69 69 68 68 69 68 68 69 69 70 71 71 71 70 70 70 70 70 69 69 69 68 68 68 67 67 67 66 66 62 59 62 62 66 66 66 65 66 65 65
67 67 68 68 68 68 67 68 68 68 68 69 69 70 70 68 69 69 68 69 69 69 69 68 68 68 67 67 66 66 66 62 60 59 60 65 65 66 65 65 65 63 64
63 66 67 67 67 68 66 67 67 67 66 66 66 67 67 66 66 66 67 69 69 69 68 68 67 67 66 64 65 65 63 59 59 59 61 65 66 65 65 65 65 63 63
56 64 66 66 67 67 66 67 66 66 65 66 66 66 66 66 67 67 66 68 68 68 67 66 66 65 63 61 61 62 60 61 59 59 62 65 66 65 65 65 64 64 63
48 60 64 65 66 67 67 66 67 67 67 67 67 66 65 67 66 66 65 65 65 66 65 64 64 63 63 62 61 61 61 60 58 61 63 64 65 65 65 65 64 63 63
35 48 61 64 64 65 66 65 66 66 64 67 67 68 67 67 67 66 64 64 64 65 65 64 63 64 64 63 62 62 62 61 60 61 61 64 64 64 65 64 64 63 62
25 29 40 59 64 64 64 65 65 66 63 66 66 67 67 66 65 66 64 64 64 65 65 65 64 64 64 63 62 62 61 61 61 60 59 63 63 64 64 65 64 63 62
22 25 30 42 58 64 64 64 64 64 64 64 66 67 68 67 65 66 66 64 63 65 65 65 64 64 63 63 62 62 62 61 60 60 60 59 62 63 64 63 65 63 62
19 23 27 34 44 60 63 63 63 62 63 62 64 65 67 67 67 66 66 66 65 66 66 65 64 63 63 63 62 62 62 61 61 60 60 59 58 59 62 62 62 64 62
18 23 27 31 36 51 60 63 64 63 63 61 62 63 64 67 68 66 65 66 66 66 66 64 64 64 62 62 62 62 62 61 61 60 59 59 59 59 60 61 61 60 63
37 40 39 34 34 37 53 60 60 62 63 62 61 62 63 65 66 66 63 65 66 65 65 65 64 63 62 62 61 60 61 61 61 60 60 59 60 61 61 61 63 62 62
43 44 45 47 47 38 37 51 54 59 61 61 62 62 62 64 65 64 63 64 65 65 64 64 64 64 63 63 62 61 61 61 61 59 59 59 60 60 61 62 62 63 62
42 43 45 45 46 48 42 36 51 54 58 59 61 63 63 64 64 64 63 64 65 64 64 64 63 63 63 63 60 59 57 58 59 60 60 60 61 61 62 62 62 62 62
39 41 42 43 44 45 47 48 38 53 55 57 61 63 64 63 63 65 64 64 64 64 63 63 63 62 60 62 61 57 55 52 52 57 59 59 60 61 61 61 61 61 61
36 38 40 42 43 44 46 47 47 42 51 56 59 62 63 64 64 64 64 64 64 64 63 63 63 62 62 59 61 61 56 54 53 52 57 58 60 60 60 61 61 61 61
35 36 38 40 41 43 46 47 49 45 50 53 57 59 61 63 64 64 64 64 64 63 63 63 62 62 62 60 60 59 59 57 56 55 52 54 57 59 60 61 60 60 60
33 34 35 37 38 40 43 46 49 52 49 52 53 58 60 63 63 64 64 64 64 63 63 63 63 62 62 61 60 59 58 57 57 56 54 53 53 55 59 60 60 60 60

GFSSE_sfc_30mbdewp_117.txt.gz
Dewpoint
53 67 70 70 71 71 72 72 72 71 71 71 72 72 72 72 72 72 72 72 72 72 71 71 71 71 69 68 70 71 71 70 71 70 70 69 69 69 68 68 66 66 69
55 67 70 70 71 71 71 72 72 71 71 72 72 72 72 72 72 72 72 72 72 72 71 71 71 70 70 71 71 71 70 70 70 70 69 69 69 69 68 67 65 68 69
58 68 69 70 71 71 72 72 72 72 72 72 72 72 72 72 72 72 72 72 72 72 71 71 70 70 71 71 70 70 70 69 69 69 69 65 66 68 68 67 68 69 68
60 67 67 70 70 71 71 72 72 72 72 72 72 72 72 72 72 72 72 72 71 72 70 71 70 71 71 70 70 70 70 69 69 68 66 65 65 68 68 68 68 68 68
61 65 67 70 70 70 71 72 72 72 72 71 72 72 72 72 72 72 72 72 72 72 70 69 71 71 69 70 69 70 69 69 68 66 64 65 65 68 68 68 67 67 67
61 63 69 69 70 70 71 72 72 72 72 71 71 72 72 72 72 72 71 71 72 72 71 70 71 70 69 69 69 69 69 68 67 64 64 65 64 67 68 66 66 68 68
62 63 69 69 70 70 70 71 72 72 71 71 71 72 72 72 72 71 71 71 72 71 71 71 70 69 69 69 69 69 68 67 65 60 62 63 65 68 67 67 68 67 68
63 64 70 70 70 70 70 70 71 71 71 71 71 71 72 72 71 71 70 71 71 71 71 71 69 69 69 69 68 68 67 66 64 61 63 63 67 67 66 67 66 67 68
66 65 69 69 69 70 69 69 69 70 71 71 71 71 71 71 70 70 70 71 71 71 71 70 69 68 69 68 68 67 67 66 64 60 63 63 67 67 66 67 66 67 68
66 67 69 69 68 67 67 68 68 69 70 70 71 71 71 71 70 70 70 70 70 69 69 69 68 68 68 68 67 67 66 66 64 61 59 62 66 66 66 66 66 67 67
65 67 69 68 68 67 66 67 68 68 69 70 70 70 70 69 69 69 68 69 69 69 69 69 68 68 68 67 67 66 66 62 59 57 56 65 66 66 66 66 66 66 66
52 66 69 69 69 68 65 67 66 65 65 66 66 68 68 66 66 65 66 68 69 69 68 68 68 67 67 65 66 66 64 60 58 57 63 65 66 66 65 65 66 65 65
41 61 67 68 69 68 67 65 65 65 65 65 65 65 65 65 65 65 66 67 68 68 68 67 67 66 64 60 60 62 61 60 58 57 64 64 66 65 65 65 65 64 64
33 54 64 67 68 68 68 64 64 62 64 64 65 67 65 65 65 65 64 65 66 66 66 65 64 63 63 62 62 61 60 61 59 60 64 64 65 65 65 65 64 64 63
29 39 55 64 66 68 68 66 67 66 63 63 63 66 65 63 65 65 63 64 65 64 65 65 64 63 63 61 62 62 62 60 61 58 62 64 65 65 65 65 65 64 64
26 28 34 45 63 65 67 66 67 67 63 65 64 65 67 64 65 64 63 60 62 61 64 64 64 64 64 63 63 62 62 60 61 60 62 64 64 64 65 65 65 64 64
20 24 29 34 43 59 64 65 66 64 64 63 64 67 68 67 66 65 65 61 59 60 65 65 65 65 65 64 63 62 62 61 62 61 59 62 63 63 63 64 64 64 64
15 20 25 29 35 43 54 60 63 64 64 62 63 64 67 67 66 65 66 65 61 61 64 65 65 64 64 63 63 63 63 62 62 61 60 61 62 62 62 64 63 63 60
24 32 34 38 37 37 43 55 60 63 64 63 61 63 65 67 67 65 65 66 66 62 64 64 65 64 63 63 63 63 63 62 61 60 60 61 60 59 59 62 61 60 61
41 41 42 42 45 45 40 45 54 59 61 64 63 61 63 66 67 66 64 65 66 65 65 65 64 65 63 62 62 61 63 62 61 60 60 61 59 60 59 61 60 60 60
41 41 41 43 45 46 46 37 42 55 58 61 64 63 62 63 66 66 65 65 66 65 65 66 64 64 63 63 62 61 62 62 62 60 59 57 59 59 61 61 62 61 61
38 40 42 42 42 44 44 45 41 42 51 58 60 62 64 64 65 66 65 63 66 65 65 65 64 64 64 64 61 60 58 59 60 60 58 57 58 58 60 61 61 61 62
35 38 39 40 41 43 44 45 45 47 44 53 59 60 62 64 65 66 66 64 64 65 64 64 64 63 62 64 63 58 55 51 52 58 59 59 59 61 60 61 62 62 62
33 36 37 38 40 41 43 44 45 45 43 45 56 60 60 64 64 66 66 66 65 65 64 63 64 63 62 61 63 62 58 52 49 50 57 58 59 60 61 62 62 61 61
31 33 35 37 38 40 42 43 45 46 47 48 47 57 60 62 64 65 66 66 65 65 64 63 63 63 63 61 61 61 61 59 57 54 52 55 56 58 59 61 61 61 61
31 31 33 35 36 38 39 41 43 45 47 48 50 51 58 60 62 65 65 65 65 65 64 64 64 63 63 62 61 60 59 58 56 56 55 54 55 56 56 58 61 61 61

GFSSE_sfc_30mbdewp_123.txt.gz
Dewpoint
67 70 71 71 72 72 71 70 71 71 71 71 70 71 70 71 71 71 72 72 73 72 71 70 70 70 69 70 70 69 69 69 69 70 70 69 68 68 69 70 69 69 69
67 69 71 71 72 72 72 70 70 71 71 71 71 71 70 71 71 71 71 72 72 73 72 71 71 70 70 70 70 70 70 70 69 69 69 69 68 68 68 68 69 69 69
67 69 70 71 71 72 72 71 71 71 71 71 71 71 70 71 71 71 71 72 72 72 71 71 71 70 71 70 70 70 69 69 70 69 69 68 69 69 69 69 69 69 69
68 69 70 71 71 72 72 72 71 72 72 71 71 71 71 71 71 71 71 71 72 72 72 71 70 71 72 70 70 69 69 69 68 69 67 67 67 69 68 69 68 69 69
68 68 69 70 71 71 72 72 72 72 71 71 71 71 71 71 71 71 71 71 72 71 71 71 71 71 70 69 70 69 69 68 67 67 66 67 67 68 68 68 69 69 69
67 68 69 69 70 71 72 72 72 72 71 71 71 71 71 72 71 71 71 71 72 71 71 71 71 70 69 69 69 69 67 68 67 66 66 67 67 67 68 68 68 68 69
69 69 69 68 70 71 71 72 72 72 71 71 71 71 71 72 71 71 71 71 72 71 71 71 70 69 69 69 69 69 68 67 63 60 64 67 66 67 67 68 69 69 69
69 69 69 69 69 70 71 72 72 71 71 70 71 71 71 71 71 70 71 71 71 71 71 70 70 68 68 68 68 68 68 66 62 57 62 66 66 67 68 68 66 67 67
70 69 69 69 69 69 70 71 71 71 71 70 71 71 71 71 71 70 70 71 71 71 71 70 69 68 68 68 68 68 67 67 66 65 64 65 66 67 67 67 66 67 68
67 70 69 69 69 69 69 70 71 71 70 70 70 70 71 71 70 70 70 70 70 70 70 69 68 68 68 68 67 67 67 66 65 65 65 66 66 67 66 67 68 68 68
65 69 70 69 69 68 68 69 70 70 70 70 70 70 70 70 70 70 70 70 70 70 70 69 68 68 68 67 67 67 66 66 65 64 62 66 65 67 67 68 68 68 67
57 67 70 69 68 68 67 68 68 69 70 70 70 70 70 70 70 70 69 69 69 69 69 68 68 67 67 67 67 66 66 65 63 64 64 66 65 67 66 67 67 67 67
38 67 69 69 69 68 67 67 67 68 69 70 70 70 70 69 69 69 69 68 69 69 68 68 67 67 67 66 66 66 65 65 64 63 63 65 66 67 67 67 67 67 66
26 45 68 68 68 68 68 68 66 66 67 68 69 70 70 69 69 68 68 68 68 68 68 68 67 67 66 66 66 65 65 63 63 64 64 65 65 66 67 66 66 66 64
27 37 64 67 67 67 67 67 68 66 66 67 67 69 69 68 67 67 67 67 68 68 68 67 67 66 66 65 65 65 64 62 64 64 65 65 66 66 67 65 65 65 64
43 45 46 49 56 66 65 65 66 67 68 67 66 67 68 67 67 67 65 67 67 68 67 68 67 66 65 65 64 64 63 62 64 63 64 65 65 66 67 66 66 65 64
43 44 45 46 49 50 52 57 64 64 65 67 67 67 67 67 66 67 66 66 67 67 67 67 67 66 65 64 64 63 63 62 62 64 63 63 64 65 65 66 66 66 65
41 41 43 44 45 46 46 50 53 55 63 65 64 67 67 67 67 66 66 65 66 66 66 66 66 65 64 64 63 63 62 63 63 62 64 64 64 64 64 65 66 66 65
38 39 39 41 42 43 44 46 48 51 54 61 64 65 65 66 66 67 66 66 66 66 66 65 65 65 64 63 63 62 63 63 63 63 62 64 63 63 63 63 64 65 65
36 36 36 38 41 42 43 44 45 47 49 53 61 64 64 64 65 64 67 65 66 66 65 64 64 65 64 63 63 63 63 63 63 63 62 62 63 63 62 62 63 63 63
33 34 35 35 37 39 40 41 42 43 45 46 50 52 64 63 64 66 65 66 65 64 65 65 64 64 64 64 62 62 62 63 63 63 62 61 61 62 62 62 62 63 62
32 32 33 33 34 35 37 39 40 41 43 45 47 50 51 57 65 65 64 63 66 64 63 65 64 64 64 64 61 60 59 61 62 62 62 62 61 61 62 61 61 61 61
29 30 31 31 32 33 34 35 38 40 41 43 45 48 50 53 60 64 63 63 64 66 63 63 65 63 62 64 62 59 57 55 59 62 62 61 61 61 61 61 60 60 60
28 28 29 29 30 30 32 32 33 35 38 40 42 45 47 50 53 57 63 63 62 64 65 62 65 64 63 61 62 60 58 57 54 55 60 61 60 60 61 61 61 61 60
27 27 28 28 29 29 29 30 31 32 36 38 39 41 43 46 50 53 58 62 64 64 65 64 62 65 63 62 62 61 59 58 57 55 56 58 60 60 60 61 61 62 62
26 26 27 27 28 28 29 29 30 31 32 34 36 38 40 43 46 50 54 59 61 64 63 64 64 64 64 63 62 61 61 58 57 57 55 57 58 59 60 61 61 62 62